Tracking 35274 objects as of 12-Sep-2026
HD Live streaming from Space Station
objects crossing your sky now

COSMOS 886 DEB

Track COSMOS 886 DEB now!
10-day predictions


NORAD ID: 9653
Int'l Code: 1976-126K
Launch date: December 27, 1976
Source: Commonwealth of Independent States (former USSR) (CIS)
Launch site: TYURATAM MISSILE AND SPACE COMPLEX (TTMTR)

Note: This is SATELLITE DEBRIS
Your satellite tracking list
Your tracking list is empty




NASA's NSSDC Master Catalog

Two Line Element Set (TLE):
1 09653U 76126K   26254.50211041  .00001235  00000-0  49272-3 0  9996
2 09653  65.7699 342.7981 0777550 137.0688 229.3808 13.30605866355525
Source of the keplerian elements: AFSPC